Location: B�rgermoos
(47.6500°N, 9.0667°E)
Time: 18:05:37
(UTC+00:00)

A-11 Canister half - Pass Details

Date: 08 August 2021
Orbit: 1526 x 1683 km, 47.3° (Epoch: 20 September)

Event Time Altitude Azimuth Distance (km) Brightness Sun altitude
Rises 13:49:53 0° 287° (WNW) 4,932 12.0 47.1°
Reaches altitude 10° 13:53:06 10° 285° (WNW) 3,933 11.7 46.7°
Maximum altitude 14:03:01 66° 206° (SSW) 1,772 10.8 45.3°
Drops below altitude 10° 14:12:38 10° 128° (SE) 3,816 11.0 43.9°
Sets 14:15:43 0° 125° (SE) 4,779 11.4 43.4°
